TimeEST,TemperatureF,Dew PointF,Humidity,Sea Level PressureIn,VisibilityMPH,Wind Direction,Wind SpeedMPH,Gust SpeedMPH,PrecipitationIn,Events,Conditions,WindDirDegrees,DateUTC
12:54 AM,30.9,27.0,85,30.16,9.0,ENE,8.1,-,N/A,,Clear,70,2012-11-06 05:54:00
1:54 AM,30.0,26.1,85,30.14,8.0,ENE,6.9,-,N/A,,Clear,70,2012-11-06 06:54:00
2:54 AM,28.0,25.0,88,30.14,7.0,ENE,8.1,-,N/A,,Clear,60,2012-11-06 07:54:00
3:54 AM,27.0,25.0,92,30.13,6.0,NE,6.9,-,N/A,,Clear,50,2012-11-06 08:54:00
4:54 AM,27.0,24.1,89,30.13,6.0,ENE,4.6,-,N/A,,Clear,70,2012-11-06 09:54:00
5:54 AM,26.1,23.0,88,30.13,6.0,ENE,5.8,-,N/A,,Clear,70,2012-11-06 10:54:00
6:54 AM,27.0,24.1,89,30.11,7.0,ENE,9.2,-,N/A,,Clear,60,2012-11-06 11:54:00
7:54 AM,27.0,24.1,89,30.13,6.0,ENE,3.5,-,N/A,,Clear,70,2012-11-06 12:54:00
8:54 AM,32.0,27.0,82,30.14,8.0,ENE,6.9,-,N/A,,Clear,70,2012-11-06 13:54:00
9:54 AM,36.0,28.9,76,30.10,9.0,ESE,6.9,-,N/A,,Clear,110,2012-11-06 14:54:00
10:54 AM,41.0,32.0,70,30.10,10.0,East,5.8,-,N/A,,Clear,100,2012-11-06 15:54:00
11:54 AM,44.1,30.0,58,30.08,10.0,ESE,3.5,-,N/A,,Clear,110,2012-11-06 16:54:00
12:54 PM,46.0,30.0,54,30.04,10.0,ENE,5.8,-,N/A,,Clear,60,2012-11-06 17:54:00
1:54 PM,46.9,28.9,50,30.01,10.0,ENE,4.6,-,N/A,,Mostly Cloudy,60,2012-11-06 18:54:00
2:54 PM,46.0,28.9,51,30.00,10.0,ESE,3.5,-,N/A,,Overcast,110,2012-11-06 19:54:00
3:54 PM,46.0,28.9,51,30.01,10.0,Calm,Calm,-,N/A,,Overcast,0,2012-11-06 20:54:00
4:54 PM,45.0,28.9,53,30.01,10.0,East,3.5,-,N/A,,Overcast,80,2012-11-06 21:54:00
5:54 PM,42.1,30.0,62,30.00,10.0,Calm,Calm,-,N/A,,Overcast,0,2012-11-06 22:54:00
6:54 PM,39.0,28.9,67,30.01,10.0,NE,3.5,-,N/A,,Partly Cloudy,50,2012-11-06 23:54:00
7:54 PM,39.0,28.9,67,30.01,10.0,ENE,4.6,-,N/A,,Mostly Cloudy,60,2012-11-07 00:54:00
8:54 PM,39.0,30.0,70,30.00,9.0,ENE,5.8,-,N/A,,Overcast,60,2012-11-07 01:54:00
9:54 PM,37.9,30.0,73,29.99,9.0,ENE,4.6,-,N/A,,Overcast,70,2012-11-07 02:54:00
10:54 PM,37.9,30.0,73,29.97,10.0,ENE,3.5,-,N/A,,Overcast,60,2012-11-07 03:54:00
11:54 PM,37.0,28.9,73,29.95,9.0,ENE,3.5,-,N/A,,Overcast,60,2012-11-07 04:54:00